MOLNIYA 1-36

Last updated on Tue Jun 27 2023 00:03:05 GMT+0000 (Coordinated Universal Time)

1 09880U 77021A 23177.21168199 .00000887 00000+0 00000+0 0 9990 2 09880 63.4534 222.2079 6963359 289.1220 11.5986 2.00345758236950
UTC large
Height (km)
Speed (km/s)
/
Latitude / Longitude
Inclination (degrees)
Orbital Period (minutes)
Azimuth
Elevation
Range (km)
Doppler Factor

Next 0 passes for location: London (51.5072 / 0.1276)

Sorry there are no passes over London.